CW1459 Weather Reports


time (UTC)temp
F
wind
direction
speed
knots
gust
knots
rain 1hr
in
rain 24hr
in
rain mn
in
humidity
%
barometer
mb
20260905184358 83 343 4.3 9.6 0.00 0.00 0.00 64 1010.1
20260905183315 83 350 4.3 7.0 0.00 0.00 0.00 64 1010.3
20260905182401 82 338 1.7 8.7 0.00 0.00 0.00 63 1010.3
20260905181332 82 14 5.2 8.7 0.00 0.00 0.00 68 1010.5
20260905180334 82 313 1.7 7.8 0.00 0.00 0.00 70 1010.5
20260905175316 81 25 1.7 4.3 0.00 0.00 0.00 71 1010.5
20260905174332 81 82 0.9 7.0 0.00 0.00 0.00 69 1010.7
20260905173313 80 323 3.5 5.2 0.00 0.00 0.00 73 1010.8
20260905172331 80 337 2.6 7.0 0.00 0.00 0.00 74 1010.9
20260905171332 80 349 2.6 7.0 0.00 0.00 0.00 74 1011.0
20260905170336 79 329 0.9 5.2 0.00 0.00 0.00 71 1011.0
20260905165315 80 5 1.7 8.7 0.00 0.00 0.00 73 1011.1
20260905164318 80 344 2.6 5.2 0.00 0.00 0.00 74 1011.2
20260905163400 79 350 2.6 5.2 0.00 0.00 0.00 75 1011.2
20260905162331 78 15 3.5 5.2 0.00 0.00 0.00 74 1011.3
20260905161314 78 5 3.5 7.8 0.00 0.00 0.00 76 1011.3
20260905160357 79 309 2.6 7.0 0.00 0.00 0.00 75 1011.5
20260905155338 79 5 2.6 7.0 0.00 0.00 0.00 76 1011.5
20260905154338 78 294 1.7 4.3 0.00 0.00 0.00 75 1011.6
20260905153334 78 326 0.9 3.5 0.00 0.00 0.00 75 1011.7
20260905152312 77 349 1.7 3.5 0.00 0.00 0.00 79 1011.8
20260905151339 77 5 1.7 3.5 0.00 0.00 0.00 79 1011.9
20260905150315 77 347 2.6 4.3 0.00 0.00 0.00 81 1012.0
20260905145319 76 323 1.7 4.3 0.00 0.00 0.00 82 1012.1
20260905144334 76 345 1.7 3.5 0.00 0.00 0.00 85 1011.9
20260905143314 76 351 0.0 2.6 0.00 0.00 0.00 84 1011.8
20260905142319 76 336 0.0 2.6 0.00 0.00 0.00 86 1011.8
20260905141326 75 36 0.9 2.6 0.00 0.00 0.00 87 1011.7
20260905140321 75 313 0.9 2.6 0.00 0.00 0.00 87 1011.6
20260905135332 75 309 2.6 3.5 0.00 0.00 0.00 88 1011.4
20260905134313 75 328 1.7 3.5 0.00 0.00 0.00 89 1011.1
20260905133336 74 314 1.7 3.5 0.00 0.00 0.00 90 1011.1
20260905132313 74 233 0.0 1.7 0.00 0.00 0.00 92 1011.1
20260905131316 73 233 0.9 1.7 0.00 0.00 0.00 94 1011.3
20260905130313 72 233 0.9 2.6 0.00 0.00 0.00 94 1011.3
20260905125313 72 223 0.9 2.6 0.00 0.00 0.00 95 1011.2
20260905124314 72 237 0.9 1.7 0.00 0.00 0.00 95 1011.2
20260905123333 72 237 0.9 2.6 0.00 0.00 0.00 96 1011.0
20260905122339 72 181 0.9 1.7 0.00 0.00 0.00 96 1011.0
20260905121337 71 202 0.0 2.6 0.00 0.00 0.00 96 1010.9
20260905120337 71 212 0.9 3.5 0.00 0.00 0.00 96 1011.0
20260905115341 71 156 0.9 1.7 0.00 0.00 0.00 96 1010.9
20260905114313 71 156 0.0 0.9 0.00 0.00 0.00 96 1010.8
20260905113336 71 156 0.0 0.9 0.00 0.00 0.00 96 1010.9
20260905112357 71 156 0.0 0.0 0.00 0.00 0.00 96 1010.8
20260905111315 71 156 0.0 1.7 0.00 0.00 0.00 96 1010.7
20260905110327 71 156 0.9 1.7 0.00 0.00 0.00 96 1010.6
20260905105336 71 156 0.0 0.9 0.00 0.00 0.00 96 1010.7
20260905104332 70 156 0.0 0.0 0.00 0.00 0.00 96 1010.4
20260905103313 70 156 0.0 0.9 0.00 0.00 0.00 96 1010.2
20260905102312 70 156 0.0 1.7 0.00 0.00 0.00 96 1010.2
20260905101336 70 156 0.0 0.9 0.00 0.00 0.00 95 1010.2
20260905100347 70 156 0.0 1.7 0.00 0.00 0.00 95 1010.2
20260905095332 70 156 0.9 1.7 0.00 0.00 0.00 95 1010.0
20260905094320 70 156 0.9 1.7 0.00 0.00 0.00 95 1010.1
20260905093328 70 156 0.0 0.0 0.00 0.00 0.00 95 1010.1
20260905092337 70 156 0.0 0.9 0.00 0.00 0.00 95 1010.0
20260905091316 70 156 0.0 1.7 0.00 0.00 0.00 95 1010.0
20260905090339 70 156 0.9 1.7 0.00 0.00 0.00 95 1010.0
20260905085316 69 156 0.0 0.9 0.00 0.00 0.00 95 1010.1
20260905084317 69 156 0.9 1.7 0.00 0.00 0.00 95 1010.0
20260905083343 69 156 0.0 0.9 0.00 0.00 0.00 95 1010.1
20260905082336 69 156 0.0 0.9 0.00 0.00 0.00 95 1010.0
20260905081340 70 156 0.9 1.7 0.00 0.00 0.00 95 1010.1
20260905080356 70 156 0.0 0.9 0.00 0.00 0.00 95 1010.1
20260905075316 70 156 0.9 1.7 0.00 0.00 0.00 95 1010.1
20260905074339 70 156 0.9 1.7 0.00 0.00 0.00 95 1010.2
20260905073319 70 156 0.0 1.7 0.00 0.00 0.00 95 1010.3
20260905072341 70 156 0.9 1.7 0.00 0.00 0.00 95 1010.3
20260905071338 70 156 0.0 1.7 0.00 0.00 0.00 95 1010.3
20260905070315 70 156 0.0 0.9 0.00 0.00 0.00 95 1010.5
20260905065341 70 156 0.9 1.7 0.00 0.01 0.00 95 1010.6
20260905064341 70 156 0.9 1.7 0.00 0.01 0.00 95 1010.8
20260905063320 70 156 0.0 0.9 0.00 0.01 0.00 95 1010.9
20260905062321 70 156 0.9 1.7 0.00 0.01 0.00 95 1011.0
20260905061322 70 156 0.9 1.7 0.00 0.01 0.00 95 1011.1
20260905060344 70 156 0.9 2.6 0.00 0.01 0.00 94 1011.2
20260905055338 70 156 0.0 0.9 0.00 0.01 0.00 94 1011.3
20260905054324 70 156 0.9 1.7 0.00 0.01 0.00 94 1011.4
20260905053317 70 156 0.9 1.7 0.00 0.01 0.00 94 1011.4
20260905052339 70 156 0.0 2.6 0.00 0.01 0.00 94 1011.7
20260905051337 71 154 1.7 2.6 0.00 0.01 0.00 94 1011.8
20260905050326 71 200 0.0 0.9 0.00 0.01 0.00 94 1011.9
20260905045337 71 200 0.9 1.7 0.00 0.01 0.00 94 1011.9
20260905044400 71 200 0.9 2.6 0.00 0.01 0.00 94 1011.8
20260905043402 72 163 1.7 2.6 0.00 0.01 0.00 94 1011.6
20260905042340 72 176 0.9 2.6 0.00 0.01 0.00 94 1011.7
20260905041347 72 202 0.9 1.7 0.00 0.01 0.00 94 1011.9
20260905040324 72 157 0.0 0.9 0.00 0.01 0.00 94 1011.9
20260905035316 72 157 0.0 0.0 0.00 0.11 0.01 94 1011.9
20260905034316 72 157 0.0 2.6 0.00 0.11 0.01 94 1011.9
20260905033317 72 194 1.7 3.5 0.00 0.11 0.01 94 1011.9
20260905032320 72 205 1.7 2.6 0.00 0.11 0.01 94 1011.8
20260905031337 72 184 0.9 2.6 0.00 0.11 0.01 94 1011.9
20260905030356 72 213 0.9 2.6 0.00 0.11 0.01 94 1011.7
20260905025338 73 199 1.7 3.5 0.00 0.13 0.01 94 1011.7
20260905024316 73 155 1.7 3.5 0.00 0.13 0.01 93 1011.6
20260905023337 73 169 0.9 2.6 0.00 0.13 0.01 93 1011.4
20260905022338 73 161 1.7 2.6 0.00 0.13 0.01 93 1011.4
20260905021358 73 140 0.9 2.6 0.00 0.13 0.01 93 1011.4
20260905020316 73 132 0.9 1.7 0.00 0.13 0.01 92 1011.3
20260905015322 73 207 0.0 0.9 0.00 0.18 0.01 92 1011.2
20260905014336 73 207 0.0 0.9 0.00 0.18 0.01 92 1011.1
20260905013315 74 207 0.0 0.0 0.00 0.18 0.01 92 1011.0
20260905012319 74 207 0.0 0.9 0.00 0.18 0.01 91 1011.0
20260905011327 74 207 0.0 1.7 0.00 0.18 0.01 91 1011.1
20260905010334 74 207 0.0 1.7 0.00 0.18 0.01 90 1011.1
20260905005337 75 207 0.0 1.7 0.00 0.18 0.01 90 1011.1
20260905004315 75 207 0.0 1.7 0.00 0.18 0.01 89 1011.0
20260905003316 76 207 0.0 0.9 0.00 0.18 0.01 89 1011.0
20260905002318 76 207 0.9 1.7 0.00 0.18 0.01 88 1010.8
20260905001315 77 207 0.9 4.3 0.00 0.18 0.01 88 1010.7
20260905000340 77 222 1.7 7.0 0.00 0.18 0.01 87 1010.7
20260904235344 78 196 1.7 4.3 0.00 0.18 0.01 87 1010.8
20260904234315 78 219 1.7 4.3 0.00 0.18 0.01 86 1010.7
20260904233339 79 191 2.6 6.1 0.00 0.18 0.01 85 1010.8
20260904232341 79 192 1.7 5.2 0.00 0.18 0.01 85 1010.8
20260904231315 80 190 2.6 5.2 0.00 0.18 0.01 84 1010.8
20260904230315 81 192 1.7 3.5 0.00 0.18 0.01 85 1010.7
20260904225340 81 190 0.9 2.6 0.00 0.18 0.01 84 1010.9
20260904224314 81 281 1.7 5.2 0.00 0.18 0.01 83 1011.0
20260904223352 82 259 1.7 5.2 0.00 0.18 0.01 81 1011.2
20260904222317 82 237 1.7 3.5 0.00 0.18 0.01 80 1011.3
20260904221315 82 229 1.7 3.5 0.00 0.18 0.01 80 1011.1
20260904220326 82 264 2.6 5.2 0.00 0.18 0.01 79 1011.1
20260904215320 83 217 1.7 3.5 0.00 0.18 0.01 79 1011.0
20260904214317 83 280 0.9 4.3 0.00 0.18 0.01 77 1011.1
20260904213326 84 243 2.6 4.3 0.00 0.18 0.01 76 1011.2
20260904212315 84 223 1.7 4.3 0.00 0.18 0.01 75 1011.1
20260904211340 84 140 1.7 3.5 0.00 0.18 0.01 75 1011.2
20260904210321 84 245 0.9 3.5 0.00 0.18 0.01 73 1011.3
20260904205337 85 241 1.7 4.3 0.00 0.18 0.01 73 1011.8
20260904204320 84 285 1.7 5.2 0.00 0.18 0.01 74 1011.8
20260904203358 84 273 0.9 2.6 0.00 0.18 0.01 72 1011.7
20260904202330 84 269 0.9 1.7 0.00 0.18 0.01 72 1011.5
20260904201316 84 252 0.9 1.7 0.00 0.18 0.01 72 1011.2
20260904200317 84 289 0.9 2.6 0.00 0.18 0.01 72 1011.3
20260904195323 84 291 0.9 3.5 0.00 0.18 0.01 72 1011.2
20260904194314 84 291 0.9 2.6 0.00 0.18 0.01 71 1011.5
20260904193355 84 327 2.6 3.5 0.00 0.18 0.01 71 1011.6
20260904192351 84 315 1.7 4.3 0.00 0.18 0.01 71 1011.8
20260904191324 84 329 2.6 5.2 0.00 0.18 0.01 68 1011.9
20260904190316 85 351 4.3 7.0 0.00 0.18 0.01 68 1012.1
20260904185328 85 316 3.5 7.8 0.00 0.18 0.01 66 1012.0